Location: ????????
(55.3155°N, 39.2900°E)
Time: 18:57:19
(UTC+00:00)

ACS3 Solar Sail - Pass Details

Date: 19 November 2025
Orbit: 889 x 1003 km, 97.3° (Epoch: 06 December)

Event Time Altitude Azimuth Distance (km) Brightness Sun altitude
Rises 03:20:13 0° 9° (N) 3,561 4.7 -14.3°
Reaches altitude 10° 03:23:37 10° 348° (NNW) 2,636 3.8 -13.8°
Maximum altitude 03:26:54 16° 314° (NW) 2,273 3.2 -13.3°
Enters shadow 03:27:24 15° 308° (NW) 2,286 3.2 -13.3°
